Find EarthCARE

NORAD ID: 59908 Int'l Des: 2024-101 Owner: ESA/JAXA Country: I-ESA operational
LEOCIRCULARRETROGRADESSO

Live Position

Loading 3D Globe...

About EarthCARE

Description loading...

Upcoming Passes

Passes for default location (London). Set your location on the main map for personalized predictions.

Altitude History

Loading altitude history...

Two-Line Element Set

1 59908U 24101A 26104.30039094 .00007861 00000-0 11009-3 0 9996
2 59908 97.0421 231.6396 0001568 100.4710 259.6723 15.57057601106625
Epoch: Apr 14, 2026 • Age: 6 hours

Current Status

Altitude 411.0 km
Velocity 7.66 km/s
Sub-Earth Point -37.34°S, 12.28°E
Launch Date May 28, 2024
Age 1.8 years
Type other

Technical Details

Classification Payload
Mass 2200.00 kg
Dry Mass 1890.00 kg
Total Mass 2200.00 kg
Length 2.50 m
Diameter 1.60 m
Span 18.50 m
Shape Box+dsh+pan
Manufacturer ADSDF/RUAGZ
Bus Type AstroBus-L
Phase Status In Orbit
Owner/State ESA/JAXA/I-ESA

Most Searched